Location: Bennemühlen
(52.5740°N, 9.7135°E)
Time: 21:09:32
(UTC+00:00)

Explorer 7 - All Passes

Search period start: 17 February 2026 00:00
Search period end: 27 February 2026 00:00
Orbit: 431 x 545 km, 50.2° (Epoch: 17 February)

Date Brightness Start Highest point End Pass type
(mag) Time Alt. Az. Time Alt. Az. Time Alt. Az.
17 Feb - 15:19:27 10° SW 15:22:38 30° SSE 15:25:56 10° E daylight
17 Feb - 16:57:06 10° WSW 17:00:43 59° S 17:04:29 10° E daylight
17 Feb - 18:35:19 10° W 18:38:57 50° SSW 18:42:45 10° ESE visible
17 Feb - 20:13:59 10° W 20:16:55 21° SSW 20:19:54 10° SSE visible
18 Feb - 14:53:52 10° SW 14:56:59 29° SSE 15:00:14 10° E daylight
18 Feb - 16:31:27 10° WSW 16:35:03 59° S 16:38:47 10° E daylight
18 Feb - 18:09:39 10° W 18:13:17 50° SSW 18:17:03 10° ESE visible
18 Feb - 19:48:18 10° W 19:51:15 21° SSW 19:54:16 10° SSE visible
19 Feb - 14:28:13 10° SSW 14:31:18 28° SSE 14:34:30 10° E daylight
19 Feb - 16:05:47 10° WSW 16:09:21 58° S 16:13:03 10° E daylight
19 Feb - 17:43:58 10° W 17:47:34 51° SSW 17:51:20 10° ESE visible
19 Feb - 19:22:35 10° W 19:25:32 22° SSW 19:28:35 10° SSE visible
20 Feb - 14:02:33 10° SSW 14:05:35 27° SSE 14:08:44 10° E daylight
20 Feb - 15:40:05 10° WSW 15:43:37 57° S 15:47:17 10° E daylight
20 Feb - 17:18:15 10° W 17:21:51 51° SSW 17:25:34 10° ESE visible
20 Feb - 18:56:51 10° W 18:59:49 22° SSW 19:02:51 10° SSE visible
21 Feb - 13:36:51 10° SSW 13:39:50 26° SSE 13:42:55 10° E daylight
21 Feb - 15:14:20 10° WSW 15:17:51 57° S 15:21:30 10° E daylight
21 Feb - 16:52:30 10° W 16:56:04 52° SSW 16:59:47 10° ESE daylight
21 Feb - 18:31:05 10° W 18:34:03 22° SSW 18:37:06 10° SSE visible
22 Feb - 13:11:08 10° SSW 13:14:04 25° SSE 13:17:05 10° E daylight
22 Feb - 14:48:34 10° WSW 14:52:03 56° S 14:55:41 10° E daylight
22 Feb - 16:26:44 10° W 16:30:16 52° SSW 16:33:57 10° ESE daylight
22 Feb - 18:05:16 10° W 18:08:15 23° SSW 18:11:19 10° SSE visible
23 Feb - 12:45:22 10° SSW 12:48:15 24° SSE 12:51:13 10° E daylight
23 Feb - 14:22:45 10° WSW 14:26:14 55° S 14:29:49 10° E daylight
23 Feb - 16:00:55 10° W 16:04:26 53° S 16:08:06 10° ESE daylight
23 Feb - 17:39:26 10° W 17:42:25 23° SSW 17:45:30 10° SSE visible
24 Feb - 12:19:34 10° SSW 12:22:24 24° SSE 12:25:19 10° E daylight
24 Feb - 13:56:56 10° WSW 14:00:22 54° S 14:03:56 10° E daylight
24 Feb - 15:35:04 10° W 15:38:34 53° S 15:42:12 10° ESE daylight
24 Feb - 17:13:34 10° W 17:16:34 24° SSW 17:19:38 10° SSE daylight
25 Feb - 11:53:44 10° SSW 11:56:32 23° SSE 11:59:23 10° E daylight
25 Feb - 13:31:03 10° WSW 13:34:28 53° S 13:38:00 10° E daylight
25 Feb - 15:09:11 10° W 15:12:40 54° S 15:16:17 10° ESE daylight
25 Feb - 16:47:40 10° W 16:50:39 24° SSW 16:53:45 10° SSE daylight
26 Feb - 11:27:53 10° SSW 11:30:37 22° SSE 11:33:25 10° E daylight
26 Feb - 13:05:08 10° WSW 13:08:33 52° S 13:12:03 10° E daylight
26 Feb - 14:43:15 10° W 14:46:44 54° S 14:50:19 10° ESE daylight
26 Feb - 16:21:44 10° W 16:24:44 25° SSW 16:27:49 10° SSE daylight
